Weather History for KRQB - October, 2013

Change the Weather History Date:

Friday, October 11, 2013

  Actual Average Record
Temperature  
Mean Temperature 53 °F -  
Max Temperature 69 °F 59 °F 79 °F (1973)
Min Temperature 37 °F 35 °F 28 °F (1987)
Degree Days  
Heating Degree Days 12    
Growing Degree Days 3 (Base 50)    
Moisture  
Dew Point 44 °F    
Average Humidity 75    
Maximum Humidity 100    
Minimum Humidity 38    
Precipitation  
Precipitation 0.00 in - - ()
Sea Level Pressure  
Sea Level Pressure 30.11 in    
Wind  
Wind Speed 3 mph (SE)    
Max Wind Speed 13 mph    
Max Gust Speed 21 mph    
Visibility 9 miles    
Events Fog    
Averages and records for this station are not official NWS values.
T = Trace of Precipitation, MM = Missing Value Source: NWS Daily Summary

Daily Weather History Graph

Daily Weather History Graph

Search for Another Location

Airport or City:

Trip Planner

Search our weather history database for the weather conditions in past years. The results will help you decide how hot, cold, wet, or windy it might be!

Date:

Astronomy

Oct. 11, 2013 Rise Set
Actual Time 7:51 AM EDT 7:04 PM EDT
Civil Twilight 7:22 AM EDT 7:33 PM EDT
Nautical Twilight 6:49 AM EDT 8:06 PM EDT
Astronomical Twilight 6:16 AM EDT 8:40 PM EDT
Moon 2:39 PM EDT (10/11) No Moon Set
Length of Visible Light 12h 10m
Length of Day
11h 13m
Waxing Crescent, 47% of the Moon is Illuminated
Oct 11
Waxing Crescent
Oct 11
First Quarter
Oct 18
Full
Oct 26
Last Quarter
Nov 3
New

Hourly Weather History & Observations

Time (EDT) Temp. Windchill Dew Point Humidity Pressure Visibility Wind Dir Wind Speed Gust Speed Precip Events Conditions
12:14 AM 45.7 °F 43.4 °F 45.7 °F 100% 30.13 in 10.0 mi West 4.6 mph - N/A   Clear
12:35 AM 45.1 °F - 45.1 °F 100% 30.12 in 10.0 mi Calm Calm - N/A   Clear
12:55 AM 45.0 °F 43.5 °F 45.0 °F 100% 30.12 in 10.0 mi WNW 3.5 mph - N/A   Clear
1:14 AM 44.2 °F - 44.2 °F 100% 30.12 in 10.0 mi Calm Calm - N/A   Clear
1:35 AM 43.3 °F - 43.3 °F 100% 30.13 in 10.0 mi Calm Calm - N/A   Clear
1:55 AM 43.7 °F - 43.7 °F 100% 30.12 in 10.0 mi Calm Calm - N/A   Clear
2:14 AM 43.2 °F - 43.2 °F 100% 30.12 in 10.0 mi Calm Calm - N/A   Clear
2:35 AM 43.0 °F - 43.0 °F 100% 30.12 in 10.0 mi Calm Calm - N/A   Clear
2:55 AM 42.4 °F - 42.4 °F 100% 30.12 in 10.0 mi Calm Calm - N/A   Clear
3:15 AM 42.1 °F - 42.1 °F 100% 30.12 in 7.0 mi Calm Calm - N/A   Clear
3:35 AM 40.3 °F - 40.3 °F 100% 30.12 in 10.0 mi Calm Calm - N/A   Clear
3:54 AM 41.4 °F - 41.4 °F 100% 30.12 in 10.0 mi Calm Calm - N/A   Clear
4:15 AM 41.4 °F - 41.4 °F 100% 30.12 in 5.0 mi Calm Calm - N/A   Scattered Clouds
4:35 AM 41.0 °F - 41.0 °F 100% 30.13 in 3.0 mi Calm Calm - N/A   Scattered Clouds
4:54 AM 41.2 °F - 41.2 °F 100% 30.14 in 7.0 mi Calm Calm - N/A   Mostly Cloudy
5:15 AM 41.0 °F - 41.0 °F 100% 30.14 in 0.2 mi Calm Calm - N/A Fog Fog
5:35 AM 39.9 °F - 39.9 °F 100% 30.14 in 0.5 mi Calm Calm - N/A Fog Fog
5:55 AM 38.8 °F - 38.8 °F 100% 30.14 in 0.5 mi Calm Calm - N/A Fog Fog
6:15 AM 38.7 °F - 38.7 °F 100% 30.14 in 4.0 mi Calm Calm - N/A   Overcast
6:34 AM 39.0 °F - 39.0 °F 100% 30.15 in 7.0 mi Calm Calm - N/A   Scattered Clouds
6:55 AM 38.7 °F - 38.7 °F 100% 30.15 in 7.0 mi Calm Calm - N/A   Clear
7:15 AM 38.5 °F - 38.5 °F 100% 30.15 in 10.0 mi Calm Calm - N/A   Clear
7:34 AM 38.7 °F - 38.7 °F 100% 30.15 in 4.0 mi Calm Calm - N/A   Mostly Cloudy
7:55 AM 37.8 °F - 37.8 °F 100% 30.15 in 0.2 mi Calm Calm - N/A Fog Fog
8:15 AM 37.4 °F - 37.4 °F 100% 30.15 in 7.0 mi Calm Calm - N/A   Scattered Clouds
8:34 AM 38.3 °F - 38.3 °F 100% 30.15 in 7.0 mi Calm Calm - N/A   Clear
8:55 AM 41.2 °F - 41.2 °F 100% 30.16 in 4.0 mi Calm Calm - N/A   Clear
9:15 AM 42.3 °F - 42.3 °F 100% 30.16 in 5.0 mi Calm Calm - N/A   Scattered Clouds
9:34 AM 44.6 °F - 44.6 °F 100% 30.15 in 10.0 mi Calm Calm - N/A   Clear
9:55 AM 47.1 °F - 47.1 °F 100% 30.15 in 10.0 mi Calm Calm - N/A   Clear
10:15 AM 50.0 °F - 49.6 °F 99% 30.15 in 10.0 mi ESE 5.8 mph - N/A   Clear
10:34 AM 52.0 °F - 50.7 °F 95% 30.15 in 10.0 mi Calm Calm - N/A   Clear
10:55 AM 55.4 °F - 52.2 °F 89% 30.14 in 10.0 mi South 3.5 mph - N/A   Clear
11:15 AM 59.9 °F - 48.6 °F 66% 30.14 in 10.0 mi SE 6.9 mph - N/A   Clear
11:34 AM 61.7 °F - 46.2 °F 57% 30.14 in 10.0 mi ESE 9.2 mph - N/A   Clear
11:55 AM 62.8 °F - 45.3 °F 53% 30.14 in 10.0 mi ESE 12.7 mph 17.3 mph N/A   Clear
12:15 PM 64.4 °F - 46.6 °F 52% 30.14 in 10.0 mi ESE 9.2 mph 16.1 mph N/A   Clear
12:34 PM 65.1 °F - 45.5 °F 49% 30.14 in 10.0 mi SE 11.5 mph 17.3 mph N/A   Clear
12:55 PM 66.0 °F - 44.8 °F 46% 30.13 in 10.0 mi SE 9.2 mph 16.1 mph N/A   Clear
1:15 PM 66.2 °F - 45.1 °F 47% 30.13 in 10.0 mi ESE 8.1 mph 17.3 mph N/A   Clear
1:34 PM 67.5 °F - 46.0 °F 46% 30.12 in 10.0 mi SE 11.5 mph 16.1 mph N/A   Clear
1:55 PM 67.3 °F - 44.1 °F 43% 30.12 in 10.0 mi SSE 9.2 mph - N/A   Clear
2:15 PM 67.5 °F - 43.5 °F 42% 30.10 in 10.0 mi SSE 8.1 mph - N/A   Clear
2:34 PM 68.0 °F - 43.7 °F 41% 30.10 in 10.0 mi SSE 6.9 mph - N/A   Clear
2:55 PM 68.0 °F - 44.2 °F 42% 30.09 in 10.0 mi SE 6.9 mph - N/A   Clear
3:15 PM 68.5 °F - 42.1 °F 38% 30.09 in 10.0 mi ESE 6.9 mph - N/A   Clear
3:34 PM 69.1 °F - 43.2 °F 39% 30.09 in 10.0 mi SE 6.9 mph - N/A   Clear
3:55 PM 68.4 °F - 43.7 °F 41% 30.09 in 10.0 mi ESE 8.1 mph - N/A   Clear
4:14 PM 68.9 °F - 42.8 °F 39% 30.08 in 10.0 mi SSE 3.5 mph - N/A   Clear
4:35 PM 68.9 °F - 42.3 °F 38% 30.07 in 10.0 mi SSE 6.9 mph - N/A   Clear
4:55 PM 68.5 °F - 43.5 °F 40% 30.06 in 10.0 mi East 11.5 mph 20.7 mph N/A   Clear
5:14 PM 68.0 °F - 45.5 °F 44% 30.06 in 10.0 mi SSE 6.9 mph - N/A   Clear
5:35 PM 68.0 °F - 43.9 °F 42% 30.06 in 10.0 mi SSE 9.2 mph 16.1 mph N/A   Clear
5:55 PM 67.1 °F - 45.1 °F 45% 30.06 in 10.0 mi SE 5.8 mph - N/A   Clear
6:14 PM 66.4 °F - 46.0 °F 48% 30.06 in 10.0 mi SSE 6.9 mph - N/A   Clear
6:35 PM 64.9 °F - 46.0 °F 50% 30.06 in 10.0 mi SE 4.6 mph - N/A   Clear
6:55 PM 64.0 °F - 45.5 °F 51% 30.06 in 10.0 mi ESE 8.1 mph - N/A   Clear
7:14 PM 62.6 °F - 45.0 °F 52% 30.06 in 10.0 mi ESE 8.1 mph - N/A   Clear
7:35 PM 60.6 °F - 45.5 °F 57% 30.06 in 10.0 mi Calm Calm - N/A   Clear
7:55 PM 60.3 °F - 45.1 °F 57% 30.06 in 10.0 mi Calm Calm - N/A   Clear
8:14 PM 58.3 °F - 45.5 °F 62% 30.06 in 10.0 mi Calm Calm - N/A   Clear
8:35 PM 58.5 °F - 45.7 °F 62% 30.06 in 10.0 mi Calm Calm - N/A   Clear
8:55 PM 55.2 °F - 45.5 °F 70% 30.06 in 10.0 mi East 3.5 mph - N/A   Clear
9:14 PM 55.8 °F - 45.1 °F 67% 30.06 in 10.0 mi SSW 6.9 mph - N/A   Clear
9:35 PM 57.0 °F - 45.1 °F 64% 30.06 in 10.0 mi Calm Calm - N/A   Clear
9:55 PM 53.4 °F - 44.2 °F 71% 30.06 in 10.0 mi SSE 3.5 mph - N/A   Clear
10:14 PM 55.8 °F - 45.3 °F 68% 30.06 in 10.0 mi Calm Calm - N/A   Clear
10:35 PM 54.3 °F - 45.9 °F 73% 30.06 in 10.0 mi SSE 3.5 mph - N/A   Clear
10:55 PM 54.3 °F - 46.0 °F 74% 30.06 in 10.0 mi South 3.5 mph - N/A   Clear
11:14 PM 54.0 °F - 46.0 °F 75% 30.07 in 10.0 mi SSE 3.5 mph - N/A   Clear
11:35 PM 53.6 °F - 46.4 °F 77% 30.07 in 10.0 mi South 5.8 mph - N/A   Clear
11:55 PM 53.4 °F - 46.4 °F 77% 30.07 in 10.0 mi South 5.8 mph - N/A   Clear